TimePDT,TemperatureF,Dew PointF,Humidity,Sea Level PressureIn,VisibilityMPH,Wind Direction,Wind SpeedMPH,Gust SpeedMPH,PrecipitationIn,Events,Conditions,WindDirDegrees,DateUTC
12:56 AM,46.9,39.9,77,30.27,10.0,NNW,3.5,-,N/A,,Clear,330,2013-03-11 07:56:00
1:56 AM,44.1,39.9,85,30.28,10.0,Calm,Calm,-,N/A,,Clear,0,2013-03-11 08:56:00
2:56 AM,43.0,39.0,86,30.27,10.0,Calm,Calm,-,N/A,,Clear,0,2013-03-11 09:56:00
3:56 AM,43.0,39.0,86,30.25,10.0,Calm,Calm,-,N/A,,Clear,0,2013-03-11 10:56:00
4:56 AM,41.0,37.9,89,30.25,10.0,Calm,Calm,-,N/A,,Clear,0,2013-03-11 11:56:00
5:56 AM,41.0,37.0,86,30.25,10.0,Calm,Calm,-,N/A,,Clear,0,2013-03-11 12:56:00
6:56 AM,41.0,37.9,89,30.26,10.0,Calm,Calm,-,N/A,,Clear,0,2013-03-11 13:56:00
7:56 AM,39.0,36.0,89,30.27,10.0,Calm,Calm,-,N/A,,Clear,0,2013-03-11 14:56:00
8:56 AM,44.1,39.9,85,30.28,10.0,Calm,Calm,-,N/A,,Clear,0,2013-03-11 15:56:00
9:56 AM,51.1,41.0,68,30.27,10.0,Calm,Calm,-,N/A,,Clear,0,2013-03-11 16:56:00
10:56 AM,59.0,41.0,51,30.25,10.0,Calm,Calm,-,N/A,,Clear,0,2013-03-11 17:56:00
11:56 AM,63.0,39.0,41,30.23,10.0,Calm,Calm,-,N/A,,Clear,0,2013-03-11 18:56:00
12:56 PM,66.9,41.0,39,30.19,10.0,Calm,Calm,-,N/A,,Clear,0,2013-03-11 19:56:00
1:56 PM,72.0,43.0,35,30.16,10.0,Calm,Calm,-,N/A,,Clear,0,2013-03-11 20:56:00
2:56 PM,73.9,44.1,34,30.14,10.0,NNW,11.5,16.1,N/A,,Clear,340,2013-03-11 21:56:00
3:56 PM,73.9,42.1,32,30.13,10.0,NW,8.1,-,N/A,,Clear,320,2013-03-11 22:56:00
4:56 PM,73.9,42.1,32,30.11,10.0,NW,6.9,-,N/A,,Clear,320,2013-03-11 23:56:00
5:56 PM,72.0,43.0,35,30.09,10.0,Variable,5.8,-,N/A,,Clear,0,2013-03-12 00:56:00
6:56 PM,66.9,45.0,45,30.11,10.0,NNE,5.8,-,N/A,,Clear,20,2013-03-12 01:56:00
7:56 PM,59.0,45.0,60,30.12,10.0,Calm,Calm,-,N/A,,Clear,0,2013-03-12 02:56:00
8:56 PM,57.0,44.1,62,30.12,10.0,Calm,Calm,-,N/A,,Clear,0,2013-03-12 03:56:00
9:56 PM,55.0,44.1,67,30.14,10.0,Calm,Calm,-,N/A,,Clear,0,2013-03-12 04:56:00
11:56 PM,50.0,43.0,77,30.14,10.0,Calm,Calm,-,N/A,,Clear,0,2013-03-12 06:56:00